TimeEDT,TemperatureF,Dew PointF,Humidity,Sea Level PressureIn,VisibilityMPH,Wind Direction,Wind SpeedMPH,Gust SpeedMPH,PrecipitationIn,Events,Conditions,WindDirDegrees,DateUTC
12:10 AM,75.2,69.8,83,29.92,10.0,SSE,10.4,-,N/A,,Mostly Cloudy,160,2013-04-12 04:10:00
12:19 AM,75.2,69.8,83,29.92,10.0,South,6.9,-,N/A,,Mostly Cloudy,170,2013-04-12 04:19:00
12:53 AM,75.9,71.1,85,29.93,10.0,SSE,5.8,-,N/A,,Overcast,160,2013-04-12 04:53:00
1:09 AM,75.2,71.6,89,29.93,10.0,South,4.6,-,N/A,,Mostly Cloudy,170,2013-04-12 05:09:00
1:16 AM,75.2,71.6,89,29.93,10.0,South,5.8,-,N/A,,Mostly Cloudy,170,2013-04-12 05:16:00
1:53 AM,75.0,71.1,87,29.93,10.0,South,5.8,-,N/A,,Mostly Cloudy,170,2013-04-12 05:53:00
2:53 AM,75.9,70.0,82,29.91,10.0,South,6.9,-,N/A,,Mostly Cloudy,170,2013-04-12 06:53:00
3:53 AM,75.9,70.0,82,29.92,10.0,South,6.9,-,N/A,,Overcast,180,2013-04-12 07:53:00
4:53 AM,75.0,70.0,84,29.91,10.0,South,5.8,-,N/A,,Mostly Cloudy,170,2013-04-12 08:53:00
5:53 AM,75.0,71.1,87,29.91,10.0,South,8.1,-,N/A,,Scattered Clouds,170,2013-04-12 09:53:00
6:53 AM,75.0,70.0,84,29.90,10.0,South,9.2,-,N/A,,Partly Cloudy,170,2013-04-12 10:53:00
7:53 AM,75.9,71.1,85,29.91,10.0,South,11.5,19.6,N/A,,Partly Cloudy,180,2013-04-12 11:53:00
8:53 AM,77.0,71.1,82,29.91,10.0,South,11.5,20.7,N/A,,Partly Cloudy,180,2013-04-12 12:53:00
9:53 AM,79.0,71.1,77,29.91,10.0,South,12.7,21.9,N/A,,Scattered Clouds,180,2013-04-12 13:53:00
10:53 AM,84.0,72.0,67,29.91,10.0,South,16.1,28.8,N/A,,Scattered Clouds,190,2013-04-12 14:53:00
11:53 AM,87.1,69.1,55,29.90,10.0,South,16.1,24.2,N/A,,Partly Cloudy,190,2013-04-12 15:53:00
12:53 PM,87.1,69.1,55,29.90,10.0,South,18.4,24.2,N/A,,Scattered Clouds,190,2013-04-12 16:53:00
1:53 PM,89.1,68.0,50,29.87,9.0,South,18.4,26.5,N/A,,Scattered Clouds,190,2013-04-12 17:53:00
2:53 PM,88.0,68.0,51,29.86,10.0,SSW,15.0,25.3,N/A,,Mostly Cloudy,200,2013-04-12 18:53:00
3:53 PM,90.0,66.0,45,29.83,10.0,SSW,15.0,23.0,N/A,,Partly Cloudy,210,2013-04-12 19:53:00
4:53 PM,90.0,66.0,45,29.83,10.0,SW,17.3,21.9,N/A,,Partly Cloudy,220,2013-04-12 20:53:00
5:53 PM,89.1,64.9,45,29.83,10.0,SW,18.4,25.3,N/A,,Mostly Cloudy,230,2013-04-12 21:53:00
6:53 PM,87.1,64.9,48,29.85,10.0,SW,11.5,-,N/A,,Partly Cloudy,220,2013-04-12 22:53:00
7:53 PM,82.9,66.0,56,29.86,10.0,WSW,9.2,-,N/A,,Clear,240,2013-04-12 23:53:00
8:53 PM,81.0,66.0,60,29.88,10.0,West,10.4,-,N/A,,Clear,260,2013-04-13 00:53:00
9:53 PM,80.1,64.9,60,29.91,10.0,WSW,5.8,-,N/A,,Clear,250,2013-04-13 01:53:00
10:53 PM,78.1,64.9,64,29.92,10.0,Calm,Calm,-,N/A,,Clear,0,2013-04-13 02:53:00
11:53 PM,77.0,66.0,69,29.93,10.0,Calm,Calm,-,N/A,,Clear,0,2013-04-13 03:53:00